DW1035 Weather Reports


Display with metric or nautical units.
time (UTC)temp
F
wind
direction
speed
MPH
gust
MPH
rain 1hr
in
rain 24hr
in
rain mn
in
humidity
%
barometer
mb
20260503023505 46 0 0.0 0.0 0.02 0.23 0.17 99 1007.6
20260503023005 46 0 0.0 0.0 0.02 0.23 0.17 99 1007.7
20260503021504 46 0 0.0 0.0 0.02 0.23 0.18 99 1007.8
20260503021004 46 0 0.0 0.0 0.02 0.22 0.18 99 1007.8
20260503020005 46 0 0.0 0.0 0.02 0.21 0.16 99 1008.0
20260503014504 46 0 0.0 0.0 0.01 0.20 0.16 99 1007.9
20260503014004 46 0 0.0 0.0 0.01 0.20 0.16 99 1007.9
20260503013505 46 0 0.0 0.0 0.01 0.20 0.16 99 1007.9
20260503013005 46 0 0.0 0.0 0.01 0.20 0.16 99 1007.9
20260503011005 46 0 0.0 0.0 0.01 0.20 0.16 99 1007.9
20260503010505 46 0 0.0 0.0 0.01 0.20 0.16 99 1007.8
20260503010004 46 0 0.0 0.0 0.00 0.19 0.14 99 1007.8
20260503004504 47 0 0.0 0.0 0.01 0.19 0.14 99 1007.8
20260503004004 47 0 0.0 0.0 0.01 0.19 0.14 99 1007.8
20260503003004 47 0 0.0 0.0 0.02 0.19 0.14 99 1007.9
20260503001004 47 0 0.0 0.0 0.03 0.19 0.14 99 1007.7
20260503000504 47 0 0.0 0.0 0.03 0.19 0.14 99 1007.6
20260503000004 47 0 0.0 0.0 0.03 0.19 0.14 99 1007.6
20260502234504 47 0 0.0 0.0 0.03 0.18 0.14 99 1007.7
20260502234004 47 0 0.0 0.0 0.02 0.17 0.13 100 1007.8
20260502233504 48 0 0.0 0.0 0.02 0.17 0.13 99 1007.8
20260502233004 48 0 0.0 0.0 0.01 0.16 0.13 98 1007.7
20260502231504 48 0 0.0 0.0 0.00 0.15 0.11 96 1007.5
20260502231004 48 0 0.0 0.0 0.00 0.15 0.11 95 1007.4
20260502230504 48 0 0.0 0.0 0.00 0.15 0.11 95 1007.3
20260502230004 48 0 0.0 0.0 0.00 0.15 0.11 95 1007.3
20260502224003 48 0 0.0 0.0 0.00 0.15 0.11 94 1007.4
20260502223503 48 0 0.0 0.0 0.00 0.15 0.11 94 1007.4
20260502223003 49 0 0.0 0.0 0.00 0.15 0.11 93 1007.4
20260502221504 49 0 0.0 0.0 0.00 0.15 0.11 91 1007.4
20260502221011 49 0 0.0 0.0 0.00 0.15 0.11 91 1007.4
20260502220510 49 0 0.0 0.0 0.00 0.15 0.11 91 1007.4
20260502220010 49 0 0.0 0.0 0.00 0.15 0.11 91 1007.4
20260502214510 49 0 0.0 0.0 0.00 0.15 0.11 91 1007.6
20260502214010 49 0 0.0 0.0 0.00 0.15 0.11 92 1007.6
20260502213510 49 0 0.0 0.0 0.00 0.15 0.11 91 1007.6
20260502211510 49 0 0.0 0.0 0.00 0.15 0.11 89 1007.6
20260502210010 49 0 0.0 0.0 0.00 0.15 0.11 87 1007.6
20260502204509 49 0 0.0 0.0 0.00 0.15 0.11 88 1007.7
20260502203509 50 0 0.0 0.0 0.00 0.15 0.11 84 1007.8
20260502203010 50 0 0.0 0.0 0.00 0.15 0.11 83 1007.7
20260502201509 50 0 0.0 0.0 0.00 0.15 0.11 83 1007.3
20260502201009 50 0 0.0 0.0 0.00 0.15 0.11 83 1007.3
20260502200010 49 0 0.0 0.0 0.00 0.15 0.11 84 1007.5
20260502194509 49 0 0.0 0.0 0.00 0.15 0.11 84 1007.7
20260502194010 49 0 0.0 0.0 0.00 0.15 0.11 84 1007.7
20260502193509 49 0 0.0 0.0 0.00 0.15 0.11 84 1007.8
20260502193009 49 0 0.0 0.0 0.00 0.15 0.11 84 1007.8
20260502191509 49 0 0.0 0.0 0.00 0.15 0.11 86 1007.8
20260502191009 49 0 0.0 0.0 0.00 0.15 0.11 87 1007.9
20260502190509 50 0 0.0 0.0 0.00 0.15 0.11 86 1008.0
20260502190009 50 0 0.0 0.0 0.00 0.15 0.11 87 1008.0
20260502184509 49 0 0.0 0.0 0.00 0.15 0.11 87 1008.2
20260502184009 50 0 0.0 0.0 0.00 0.15 0.11 87 1008.3
20260502183508 50 0 0.0 0.0 0.00 0.15 0.11 87 1008.3
20260502183008 50 0 0.0 0.0 0.00 0.15 0.11 87 1008.3
20260502181509 50 0 0.0 0.0 0.00 0.15 0.11 86 1008.4
20260502181009 50 0 0.0 0.0 0.00 0.15 0.11 87 1008.3
20260502180508 50 0 0.0 0.0 0.00 0.15 0.11 87 1008.2
20260502170509 52 0 0.0 0.0 0.00 0.15 0.11 82 1008.5
20260502163009 51 0 0.0 0.0 0.00 0.15 0.11 86 1008.6
20260502161509 51 0 0.0 0.0 0.00 0.15 0.11 86 1008.5
20260502161009 51 0 0.0 0.0 0.00 0.15 0.11 86 1008.6
20260502160509 51 0 0.0 0.0 0.00 0.15 0.11 87 1008.6
20260502151508 49 0 0.0 0.0 0.00 0.15 0.11 93 1009.0
20260502151008 49 0 0.0 0.0 0.00 0.15 0.11 94 1009.1
20260502150508 49 0 0.0 0.0 0.01 0.15 0.11 93 1009.1
20260502130507 45 0 0.0 0.0 0.07 0.10 0.08 98 1009.6
20260502123508 45 0 0.0 0.0 0.01 0.03 0.02 92 1009.7
20260502123007 45 0 0.0 0.0 0.00 0.02 0.01 92 1009.6
20260502121507 45 0 0.0 0.0 0.01 0.02 0.01 93 1009.1
20260502121008 45 0 0.0 0.0 0.01 0.02 0.01 93 1009.0
20260502120507 44 0 0.0 0.0 0.01 0.02 0.01 94 1008.9
20260502114508 43 0 0.0 0.0 0.01 0.02 0.01 96 1009.1
20260502114007 43 0 0.0 0.0 0.01 0.02 0.01 96 1009.1
20260502113507 43 0 0.0 0.0 0.01 0.02 0.01 94 1009.2
20260502111507 43 0 0.0 0.0 0.01 0.01 0.01 90 1009.5
20260502110507 43 0 0.0 0.0 0.00 0.00 0.00 87 1009.5
20260502110006 43 0 0.0 0.0 0.00 0.00 0.00 86 1009.4
20260502104507 43 0 0.0 0.0 0.00 0.00 0.00 83 1009.2
20260502104007 42 0 0.0 0.0 0.00 0.00 0.00 83 1009.2
20260502103507 42 0 0.0 0.0 0.00 0.00 0.00 82 1009.2
20260502103007 42 0 0.0 0.0 0.00 0.00 0.00 83 1009.2
20260502101507 42 0 0.0 0.0 0.00 0.00 0.00 84 1009.0
20260502101007 41 0 0.0 0.0 0.00 0.00 0.00 83 1009.0
20260502100507 41 0 0.0 0.0 0.00 0.00 0.00 84 1009.0
20260502091506 40 0 0.0 0.0 0.00 0.00 0.00 83 1008.6
20260502091006 40 0 0.0 0.0 0.00 0.00 0.00 83 1008.7
20260502090507 40 0 0.0 0.0 0.00 0.00 0.00 83 1008.6
20260502071506 39 0 0.0 0.0 0.00 0.00 0.00 82 1009.6
20260502071006 39 0 0.0 0.0 0.00 0.00 0.00 82 1009.6
20260502070506 39 0 0.0 0.0 0.00 0.00 0.00 82 1009.6
20260502070007 39 0 0.0 0.0 0.00 0.00 0.00 82 1009.6
20260502063506 38 0 0.0 0.0 0.00 0.00 0.00 81 1009.4
20260502063007 38 0 0.0 0.0 0.00 0.00 0.00 82 1009.2
20260502061506 38 0 0.0 0.0 0.00 0.00 0.00 83 1009.2
20260502061006 38 0 0.0 0.0 0.00 0.00 0.00 83 1009.0
20260502060506 38 0 0.0 0.0 0.00 0.00 0.00 83 1009.0
20260502060006 38 0 0.0 0.0 0.00 0.00 0.00 83 1009.0
20260502054505 37 0 0.0 0.0 0.00 0.00 0.00 83 1008.8
20260502053506 37 0 0.0 0.0 0.00 0.00 0.00 82 1009.0
20260502053006 37 0 0.0 0.0 0.00 0.00 0.00 82 1009.0
20260502051505 37 0 0.0 0.0 0.00 0.00 0.00 83 1008.9
20260502050006 37 0 0.0 0.0 0.00 0.00 0.00 83 1008.7
20260502043506 37 0 0.0 0.0 0.00 0.00 0.00 81 1008.7
20260502043005 37 0 0.0 0.0 0.00 0.00 0.00 81 1008.7
20260502041005 38 0 0.0 0.0 0.00 0.00 0.00 79 1008.5
20260502040506 38 0 0.0 0.0 0.00 0.00 0.00 79 1008.5
20260502040005 38 0 0.0 0.0 0.00 0.00 0.00 79 1008.5
20260502034005 39 0 0.0 0.0 0.00 0.00 0.00 76 1008.4
20260502033505 39 0 0.0 0.0 0.00 0.00 0.00 76 1008.4
20260502033005 39 0 0.0 0.0 0.00 0.00 0.00 76 1008.4
20260502031505 40 0 0.0 0.0 0.00 0.00 0.00 75 1008.4
20260502031005 40 0 0.0 0.0 0.00 0.00 0.00 75 1008.4
20260502030505 40 0 0.0 0.0 0.00 0.00 0.00 75 1008.4
20260502030005 41 0 0.0 0.0 0.00 0.00 0.00 73 1008.4
20260502024005 42 0 0.0 0.0 0.00 0.00 0.00 71 1008.3